Simultaneous Nadir Overpasses (SNOs) Predictions

Prediction of SNOs between NOAA-15 and METOP-C Satellite Orbit:

Table of predicted SNOs for the next 14.0 days since TLE Epoch: 1/8/2022
Index Date (NOAA-15) Time (NOAA-15) Lat,Lon (NOAA-15) SZA (NOAA-15 ) Date (METOP-C) Time (METOP-C) Lat,Lon (METOP-C) SZA (METOP-C ) Distance(km) Time Diff (sec)
1 01/09/2022 11:42:01 -81.04,-137.46 75.29 01/09/2022 11:40:47 -81.04,-137.32 75.31 2.44 74
2 01/09/2022 12:32:29 81.03, 30.03 104.71 01/09/2022 12:31:28 81.04, 30.19 104.71 3.04 61
3 01/09/2022 13:23:03 -81.04,-162.70 75.30 01/09/2022 13:22:09 -81.03,-162.81 75.34 1.85 54
4 01/09/2022 14:13:31 81.03, 4.78 104.70 01/09/2022 14:12:50 81.04, 4.70 104.68 1.60 41
5 01/09/2022 15:04:05 -81.04, 172.05 75.31 01/09/2022 15:03:30 -81.04, 172.08 75.32 0.65 35
6 01/09/2022 15:54:34 81.05, -20.84 104.67 01/09/2022 15:54:12 81.03, -20.79 104.66 1.89 22
7 01/09/2022 16:45:07 -81.04, 146.81 75.32 01/09/2022 16:44:51 -81.05, 146.96 75.30 3.05 16
8 01/09/2022 17:35:36 81.05, -46.08 104.66 01/09/2022 17:35:33 81.04, -45.91 104.67 3.13 3
9 01/09/2022 18:26:09 -81.03, 121.56 75.33 01/09/2022 18:26:13 -81.04, 121.47 75.33 1.83 4
10 01/09/2022 19:16:38 81.05, -71.33 104.65 01/09/2022 19:16:55 81.04, -71.39 104.64 1.67 17
11 01/09/2022 20:07:12 -81.05, 95.95 75.36 01/09/2022 20:07:35 -81.04, 95.99 75.36 1.53 23
12 01/09/2022 20:57:40 81.05, -96.58 104.64 01/09/2022 20:58:16 81.04, -96.51 104.66 1.18 36
13 01/09/2022 21:48:14 -81.05, 70.71 75.37 01/09/2022 21:48:56 -81.05, 70.87 75.35 2.83 42
14 01/09/2022 22:38:42 81.05,-121.83 104.63 01/09/2022 22:39:38 81.04,-122.00 104.63 3.12 56
15 01/09/2022 23:29:16 -81.05, 45.47 75.38 01/09/2022 23:30:18 -81.04, 45.39 75.37 1.66 62



Historial Predications of SNOs between NOAA-15 and METOP-C
